北斗 6 (BEIDOU 6)

Basic Information
目录编号:
37210
目录名称:
BEIDOU 6
国际标识:
2010-057A
轨道中心:
EARTH
卫星名称:
北斗 6
卫星全名:
北斗 6 (BEIDOU 6)
卫星状态:
在轨 (已飞行5613 天)
发射日期:
2010-10-31 UTC
国别 :
中国 (CN)
星等 :
--
Orbit Information
数据来源 国际轨道数据 AOE轨道数据
星历时间 2026-03-14T05:17:21+0800
7小时前
查看轨道信息
2026-03-11T01:00:00+0800
3天前
查看轨道信息
半长轴 42164.504km 42164.448km
偏心率 0.0008151 0.0008399
轨道倾角 3.409° 3.401°
近地点辐角 213.291° 212.899°
升交点赤经 69.488° 69.511°
平近点角 8.096° 300.984°
近地点 35751.998km 35750.897km
远地点 35820.736km 35821.725km
周期 1436.085分钟 1436.082分钟
每日圈数 1.002726 1.002728
Detailed Information
卫星平台:
东方红三号
平衡模式:
三轴稳定
制造商(研发单位):
中国空间技术研究院
制造商所在国:
中国
使用方式:
暂无
Satellite Introduction
北斗卫星导航系统是中国着眼于国家安全和经济社会发展需要,自主建设运行的全球卫星导航系统,是为全球用户提供全天候、全天时、高精度的定位、导航和授时服务的国家重要时空基础设施。该卫星仍在工作。
2D Orbit Map
3D Orbit Map
Orbit Altitude Analysis Chart
Orbit Inclination Analysis Chart
Orbit Comprehensive Analysis Chart
View Comprehensive Chart